Regional Weather Roundup
Issued by NWS

Home | Current Version | Previous Version | Graphics & Text | Print | Product List | Glossary On
Versions: 1 2 3 4 5 6 7 8 9 10 11 12 13 14 15 16 17 18 19 20 21 22 23 24 25 26 27 28 29 30 31 32 33 34 35 36 37 38 39 40 41 42 43 44 45 46 47 48 49 50
000
ASUS43 KFSD 101710
RWRSD

WEATHER ROUNDUP FOR SOUTH DAKOTA
NATIONAL WEATHER SERVICE SIOUX FALLS SD
1100 AM CST SUN DEC 10 2017

NOTE: "FAIR" INDICATES FEW OR NO CLOUDS BELOW 12,000 FEET WITH NO
SIGNIFICANT WEATHER AND/OR OBSTRUCTIONS TO VISIBILITY.


SDZ001>005-009-010-012>017-101800-
NORTHWEST AND NORTH CENTRAL SOUTH DAKOTA

CITY           SKY/WX    TMP DP  RH WIND       PRES   REMARKS
BUFFALO          N/A     47  17  30 W17       30.12S
FAITH            N/A     48  16  27 W23G30    30.13S
MOBRIDGE       CLOUDY    42  24  49 NW10      30.06S
$$

SDZ012>016-024>037-041>051-057-063-072>074-101800-
SOUTHWEST AND SOUTH CENTRAL SOUTH DAKOTA

CITY           SKY/WX    TMP DP  RH WIND       PRES   REMARKS
RAPID CTY ARPT SUNNY     58   5  12 NW14      30.21S
PIERRE         SUNNY     48  18  30 NW22      30.12S
CUSTER         SUNNY     51  -3  10 NW13G21   30.27R
ELLSWORTH AFB  SUNNY     59   6  12 NW12      30.21R
PHILIP         CLOUDY    56  12  17 NW26G33   30.16S
PINE RIDGE     SUNNY     45  17  32 W9        30.28F
SPEARFISH      FAIR      48  10  21 W15G21    30.25S
WINNER         FAIR      51  17  26 NW18      30.15R
$$

SDZ004>011-016>023-039-040-101800-
NORTHEAST SOUTH DAKOTA

CITY           SKY/WX    TMP DP  RH WIND       PRES   REMARKS
ABERDEEN       SUNNY     39  27  62 NW13      30.07R
WATERTOWN      SUNNY     33  27  78 NW12      30.03R WCI  24
SISSETON         N/A     31  23  72 N6        30.05R WCI  25
$$

SDZ017-020-022-023-036>040-048>070-101800-
SOUTHEAST SOUTH DAKOTA

CITY           SKY/WX    TMP DP  RH WIND       PRES   REMARKS
SIOUX FALLS    MOSUNNY   37  28  70 NW13      30.07R
HURON          SUNNY     38  27  64 NW13      30.08R
CHAMBERLAIN    SUNNY     47  23  38 NW9       30.12S
MITCHELL       SUNNY     40  29  64 NW8       30.11R
YANKTON        SUNNY     44  26  49 W15G24    30.11R
$$

ABBREVIATIONS USED IN REMARKS
   TC - TEMPERATURE IN CELSIUS
  WCI - WIND CHILL INDEX
   HX - HEAT INDEX
  VSB - VISIBILITY





USA.gov is the U.S. government's official web portal to all federal, state and local government web resources and services.